Location: Roc des P�zouls
(43.9667°N, 3.5500°E)
Time: 21:25:10
(UTC+00:00)

SL-16 R/B - Pass Details

Date: 14 November 2019
Orbit: 842 x 846 km, 71.0° (Epoch: 06 December)

Event Time Altitude Azimuth Distance (km) Brightness Sun altitude
Exits shadow 05:32:32 - 334° (NNW) 3,259 4.9 -12.1°
Reaches altitude 10° 05:34:34 10° 334° (NNW) 2,477 4.3 -11.7°
Maximum altitude 05:40:16 88° 249° (WSW) 853 2.2 -10.7°
Drops below altitude 10° 05:45:56 10° 158° (SSE) 2,460 5.2 -9.7°
Sets 05:48:22 0° 158° (SSE) 3,391 5.9 -9.3°
